Skip Navigation Links
NOAA logo - Click to go to the NOAA homepage
NOAA's National Weather Service
Alaska Aviation Weather Unit
  NWS logo - Click to go to the NWS homepage
Left Navbar Graphic     22 AKDT = 06 GMT

   
NOAA is celebrating 200 years of science, service, and stewardship. Visit the NOAA 200th celebration Web site to learn more.
USA.gov is the U.S. Government's official Web portal to all Federal, state and local government Web resources and services.
Facebook
NWS on Facebook

Important Change Regarding the AAWU Web Presence

 

Over the last several months, the AAWU has been working to navigate its webpages to a nationally supported server. Security, as well as other needs, have necessitated the change.  In the process, we have made an effort to enhance the functionality of our website, as well as some of our products. As of June 20, 2017, aawu.arh.noaa.gov will be discontinued. The new AAWU web address is weather.gov/aawu. It is now live and will run in-parallel with the old site until it is discontinued. Please send any feedback or questions regarding the new webpages to nws.ar.aawu.webauthors@noaa.gov.  Thank you for your patience during this time of transition.
AAWU Home :: Display TAF Add Bookmark
TAF PAWG 280522Z 2806/2906 26006KT P6SM SCT200
     FM281200 16006KT P6SM SCT070 BKN100
     FM281800 31005KT P6SM FEW070
      AMD LTD TO CLD VIS AND WIND 2806/2815=
METAR PAWG 280056Z 29005KT 10SM BKN180 17/04 A3018=

METAR PAWG 280156Z 30004KT 10SM BKN180 16/07 A3017=

METAR PAWG 280256Z 28006KT 10SM BKN180 16/04 A3016=

METAR PAWG 280356Z 27004KT 10SM FEW120 BKN180 14/06 A3015=

METAR PAWG 280456Z 28004KT 10SM FEW120 BKN180 13/05 A3015=

METAR PAWG 280556Z 32003KT 10SM FEW120 SCT180 11/06 A3015=


NOAA's National Weather Service
Alaska Aviation Weather Unit
6930 Sand Lake Road
Anchorage, AK 99502-1845
Disclaimer
Credits
Glossary
Privacy Policy
About Us
Career Opportunities
Contact AAWU Internet Services Site last modified: April, 17th 2012